COSMOS 1275 DEB, 17616

Orbit data source: Space-Track

COSMOS 1275 DEB, 17616 is space debris in LEO originally from a launch on Thu, 04 Jun 1981 UTC launched from the Plesetsk Missile And Space Complex (PKMTR). Debris objects in space refer to the collection of defunct objects orbiting the Earth. Examples of debris include non-operational satellites, rocket bodies, and fragments generated from explosions, collisions, or faulty payload assembly.

Loading next visibility...
Identifier
17616, 1981-053KK
Orbit
LEO
Country
Flag of CISCIS
Related business
Manufacturer
Unknown
Mission
Spacecraft
Bus & Motor
Unknown
Mass
Unknown
Launch date (UTC)
1981-06-04 (45 years ago)
Launch vehicle
Unknown
Launch site
Plesetsk Missile And Space Complex (PKMTR)
Object type
Payload
Rocket body
Debris
Shape & HBR
Unknown shape, 0.1 m
Radar Cross Section
Medium (>0.1 m² and <1 m²)

Expand to show TLE details & history
Last TLE update: 18 hours ago

TLE from 18 hours ago
0 COSMOS 1275 DEB
1 17616U 81053KK  26254.55195307  .00000605  00000-0  63830-3 0  9996
2 17616  83.0417 293.7371 0115780 267.6432 246.6065 13.70348177 53996
Epoch: 2026-09-11T13:14Z
TLE epoch observation values (Epoch: 2026-09-11T13:14:48.745Z)
Latitude
26.78198°
Longitude
-79.0532°
Altitude
1,036.321 km
Speed
7.319 km/s
True Right ascension
07h 20m 53s
True Declination
26° 38' 57"
Sunlit
Object was in daylight at epoch
Visualization orbit readout
Latitude
Unknown
Longitude
Unknown
Altitude
Unknown
Speed
Unknown
Apparent Right ascension
Unknown
Apparent Declination
Unknown
Sunlit
N/A
Visualization observer readout
Local Sidereal Time
23:47:40
Azimuth
Unknown
Elevation
Unknown
Doppler factor
Unknown
Orbital elements
Apogee altitude
1,080.844 km
Perigee altitude
910.101 km
Semi-major axis
7,373.609 km
Eccentricity
0.01158
Inclination
83.0417°
RAAN
293.7371°
Arg. of periapsis
267.6432°
True anomaly
245.39587°
Mean anomaly
246.6065°
Eccentric anomaly
246.00048°
Mean motion
3.42786 °/min
Orbital period
105.02 mins
BSTAR
0.0006383
Loading maneuver chart data...
Computing Atmospheric mass density...
Loading historical data...
Loading historical data...
Loading historical data...
Loading historical data...
Loading historical data...
Loading historical data...
Loading historical data...

Documentation

Showing up to 5 results
|